TimeCEST,TemperatureF,Dew PointF,Humidity,Sea Level PressureIn,VisibilityMPH,Wind Direction,Wind SpeedMPH,Gust SpeedMPH,PrecipitationIn,Events,Conditions,WindDirDegrees,DateUTC
12:55 AM,46.4,39.2,76,30.24,-9999.0,North,-9999.0,-,N/A,,Clear,0,2012-10-04 22:55:00
1:55 AM,44.6,37.4,76,30.24,-9999.0,North,-9999.0,-,N/A,,Clear,0,2012-10-04 23:55:00
2:00 AM,45,38,67,,9,East,9.2,,,,,90,2012-10-05 00:00:00
2:55 AM,44.6,37.4,76,30.24,-9999.0,North,-9999.0,-,N/A,,Clear,0,2012-10-05 00:55:00
5:55 AM,44.6,30.2,57,30.24,-9999.0,North,-9999.0,-,N/A,,Clear,0,2012-10-05 03:55:00
6:55 AM,44.6,28.4,53,30.24,-9999.0,North,-9999.0,-,N/A,,Clear,0,2012-10-05 04:55:00
7:55 AM,44.6,30.2,57,30.24,-9999.0,North,-9999.0,-,N/A,,Clear,0,2012-10-05 05:55:00
8:00 AM,45,30,44,,9,Calm,Calm,,,,,,2012-10-05 06:00:00
8:55 AM,46.4,32.0,57,30.27,-9999.0,North,-9999.0,-,N/A,,Clear,0,2012-10-05 06:55:00
9:55 AM,46.4,32.0,57,30.27,-9999.0,North,-9999.0,-,N/A,,Clear,0,2012-10-05 07:55:00
10:55 AM,48.2,37.4,66,30.30,-9999.0,North,-9999.0,-,N/A,,Clear,0,2012-10-05 08:55:00
11:55 AM,50.0,41.0,71,30.30,-9999.0,North,-9999.0,-,N/A,,Clear,0,2012-10-05 09:55:00
12:55 PM,51.8,42.8,71,30.30,-9999.0,North,-9999.0,-,N/A,,Clear,0,2012-10-05 10:55:00
1:55 PM,51.8,14.0,22,30.30,-9999.0,North,-9999.0,-,N/A,,Clear,0,2012-10-05 11:55:00
2:00 PM,53,13,10,,9,Calm,Calm,,,,,,2012-10-05 12:00:00
2:55 PM,53.6,46.4,77,30.30,-9999.0,North,-9999.0,-,N/A,,Clear,0,2012-10-05 12:55:00
3:55 PM,55.4,46.4,72,30.30,-9999.0,North,-9999.0,-,N/A,,Clear,0,2012-10-05 13:55:00
5:55 PM,53.6,48.2,82,30.30,-9999.0,North,-9999.0,-,N/A,,Clear,0,2012-10-05 15:55:00
6:55 PM,53.6,48.2,82,30.30,-9999.0,North,-9999.0,-,N/A,,Clear,0,2012-10-05 16:55:00
7:55 PM,53.6,46.4,77,30.30,-9999.0,North,-9999.0,-,N/A,,Clear,0,2012-10-05 17:55:00
8:00 PM,53,47,73,,12,Calm,Calm,,,,,,2012-10-05 18:00:00
8:55 PM,51.8,44.6,76,30.30,-9999.0,North,-9999.0,-,N/A,,Clear,0,2012-10-05 18:55:00
9:55 PM,50.0,42.8,76,30.33,-9999.0,North,-9999.0,-,N/A,,Clear,0,2012-10-05 19:55:00
10:55 PM,50.0,41.0,71,30.33,-9999.0,North,-9999.0,-,N/A,,Clear,0,2012-10-05 20:55:00
11:55 PM,50.0,33.8,54,30.33,-9999.0,North,-9999.0,-,N/A,,Clear,0,2012-10-05 21:55:00